CW1459 Weather Reports


time (UTC)temp
C
wind
direction
speed
KPH
gust
KPH
rain 1hr
cm
rain 24hr
cm
rain mn
cm
humidity
%
barometer
mb
20260508134353 15 219 8.0 14.5 0.00 0.00 0.00 51 1013.5
20260508133336 13 215 8.0 12.9 0.00 0.00 0.00 55 1013.6
20260508132313 12 205 8.0 14.5 0.00 0.00 0.00 57 1013.7
20260508131319 13 180 8.0 17.7 0.00 0.00 0.00 58 1013.8
20260508130336 13 215 8.0 16.1 0.00 0.00 0.00 55 1013.8
20260508125336 12 265 6.4 19.3 0.00 0.00 0.00 55 1013.8
20260508124338 12 201 9.7 16.1 0.00 0.00 0.00 57 1013.9
20260508123313 11 215 4.8 9.7 0.00 0.00 0.00 63 1013.8
20260508122338 10 150 4.8 9.7 0.00 0.00 0.00 64 1013.8
20260508121316 10 223 4.8 14.5 0.00 0.00 0.00 64 1013.8
20260508120345 10 193 6.4 16.1 0.00 0.00 0.00 63 1013.7
20260508115314 10 185 8.0 16.1 0.00 0.00 0.00 69 1013.7
20260508114338 7 175 8.0 12.9 0.00 0.00 0.00 81 1013.7
20260508113332 6 186 3.2 8.0 0.00 0.00 0.00 87 1013.3
20260508112312 5 84 0.0 3.2 0.00 0.00 0.00 86 1013.4
20260508111317 4 84 0.0 1.6 0.00 0.00 0.00 86 1013.3
20260508110351 3 84 0.0 1.6 0.00 0.00 0.00 86 1013.1
20260508105336 3 84 0.0 3.2 0.00 0.00 0.00 86 1013.0
20260508104312 3 84 0.0 1.6 0.00 0.00 0.00 85 1012.9
20260508103337 3 84 0.0 0.0 0.00 0.00 0.00 85 1012.8
20260508102312 3 84 0.0 3.2 0.00 0.00 0.00 84 1012.7
20260508101335 3 84 0.0 0.0 0.00 0.00 0.00 83 1012.6
20260508100314 3 84 0.0 1.6 0.00 0.00 0.00 82 1012.6
20260508095312 3 84 0.0 0.0 0.00 0.00 0.00 81 1012.4
20260508094311 3 84 0.0 1.6 0.00 0.00 0.00 81 1012.3
20260508093334 4 84 0.0 3.2 0.00 0.00 0.00 82 1012.3
20260508092317 3 84 3.2 3.2 0.00 0.00 0.00 82 1012.4
20260508091333 3 84 0.0 3.2 0.00 0.00 0.00 81 1012.5
20260508090321 4 84 0.0 0.0 0.00 0.00 0.00 79 1012.4
20260508085326 5 84 0.0 0.0 0.00 0.00 0.00 78 1012.3
20260508084311 5 84 0.0 1.6 0.00 0.00 0.00 76 1012.1
20260508083340 5 84 0.0 0.0 0.00 0.00 0.00 76 1012.0
20260508082335 5 84 0.0 1.6 0.00 0.00 0.00 75 1011.9
20260508081323 5 84 1.6 1.6 0.00 0.00 0.00 74 1012.0
20260508080319 6 84 0.0 0.0 0.00 0.00 0.00 73 1012.1
20260508075321 6 84 0.0 3.2 0.00 0.00 0.00 72 1012.0
20260508074345 6 84 1.6 3.2 0.00 0.00 0.00 71 1012.0
20260508073337 6 84 1.6 3.2 0.00 0.00 0.00 70 1011.9
20260508072316 7 84 0.0 4.8 0.00 0.00 0.00 69 1011.8
20260508071336 7 55 1.6 4.8 0.00 0.00 0.00 70 1011.7
20260508070334 7 61 3.2 8.0 0.00 0.00 0.00 70 1011.6
20260508065318 7 69 0.0 3.2 0.00 0.00 0.00 67 1011.7
20260508064339 8 67 0.0 3.2 0.00 0.00 0.00 65 1011.7
20260508063340 8 61 0.0 3.2 0.00 0.00 0.00 63 1011.7
20260508062317 9 15 1.6 6.4 0.00 0.00 0.00 61 1011.7
20260508061339 9 5 3.2 14.5 0.00 0.00 0.00 60 1011.6
20260508060337 9 351 4.8 9.7 0.00 0.00 0.00 61 1011.6
20260508055329 9 10 1.6 6.4 0.00 0.00 0.00 61 1011.5
20260508054340 9 360 3.2 14.5 0.00 0.00 0.00 61 1011.5
20260508053339 8 17 4.8 12.9 0.00 0.00 0.00 62 1011.4
20260508052340 8 320 1.6 4.8 0.00 0.00 0.00 61 1011.3
20260508051318 8 136 1.6 3.2 0.00 0.00 0.00 62 1011.2
20260508050316 9 123 1.6 4.8 0.00 0.00 0.00 61 1011.0
20260508045330 10 80 1.6 3.2 0.00 0.00 0.00 59 1010.9
20260508044315 10 96 1.6 3.2 0.00 0.00 0.00 58 1010.8
20260508043341 10 351 3.2 6.4 0.00 0.00 0.00 57 1010.6
20260508042334 10 220 0.0 4.8 0.00 0.00 0.00 59 1010.5
20260508041338 10 161 1.6 3.2 0.00 0.00 0.00 58 1010.3
20260508040323 10 152 1.6 4.8 0.00 0.00 0.00 57 1010.1
20260508035322 11 149 3.2 4.8 0.00 0.00 0.00 56 1009.9
20260508034317 10 169 1.6 3.2 0.00 0.00 0.00 56 1009.9
20260508033341 10 169 1.6 3.2 0.00 0.00 0.00 57 1009.8
20260508032315 10 169 0.0 3.2 0.00 0.00 0.00 57 1009.6
20260508031317 11 157 1.6 4.8 0.00 0.00 0.00 56 1009.6
20260508030319 11 157 1.6 3.2 0.00 0.00 0.00 55 1009.6
20260508025344 11 185 3.2 3.2 0.00 0.00 0.00 56 1009.5
20260508024332 11 311 0.0 3.2 0.00 0.00 0.00 54 1009.5
20260508023336 12 294 0.0 3.2 0.00 0.00 0.00 53 1009.4
20260508022320 12 294 0.0 3.2 0.00 0.00 0.00 52 1009.4
20260508021332 12 294 0.0 1.6 0.00 0.00 0.00 50 1009.3
20260508020400 13 302 0.0 8.0 0.00 0.00 0.00 49 1009.1
20260508015319 13 314 3.2 8.0 0.00 0.00 0.00 48 1009.1
20260508014314 13 339 4.8 6.4 0.00 0.00 0.00 46 1009.0
20260508013328 14 326 6.4 9.7 0.00 0.00 0.00 45 1008.8
20260508012334 14 322 1.6 9.7 0.00 0.00 0.00 45 1008.6
20260508011338 14 302 4.8 6.4 0.00 0.00 0.00 46 1008.5
20260508010339 15 47 0.0 4.8 0.00 0.00 0.00 46 1008.3
20260508005337 15 348 3.2 8.0 0.00 0.00 0.00 42 1008.1
20260508004322 16 351 3.2 9.7 0.00 0.00 0.00 42 1008.1
20260508003328 16 309 4.8 9.7 0.00 0.00 0.00 42 1007.9
20260508002315 16 296 6.4 11.3 0.00 0.00 0.00 41 1007.7
20260508001318 16 300 8.0 12.9 0.00 0.00 0.00 40 1007.6
20260508000339 16 328 8.0 16.1 0.00 0.00 0.00 40 1007.4
20260507235322 17 306 8.0 16.1 0.00 0.03 0.00 39 1007.4
20260507234316 17 330 8.0 14.5 0.00 0.03 0.00 39 1007.3
20260507233332 17 297 8.0 17.7 0.00 0.03 0.00 39 1007.2
20260507232328 17 317 4.8 14.5 0.00 0.03 0.00 41 1007.0
20260507231315 17 320 6.4 14.5 0.00 0.03 0.00 40 1006.9
20260507230333 17 323 9.7 17.7 0.00 0.03 0.00 40 1006.7
20260507225316 17 111 1.6 3.2 0.00 0.03 0.00 51 1006.6
20260507224332 17 111 0.0 3.2 0.00 0.03 0.00 52 1006.4
20260507223332 17 107 0.0 3.2 0.00 0.03 0.00 49 1006.3
20260507222318 17 100 3.2 3.2 0.00 0.03 0.00 45 1006.2
20260507221318 17 63 1.6 3.2 0.00 0.03 0.00 39 1006.2
20260507220333 18 5 0.0 6.4 0.00 0.03 0.00 39 1006.1
20260507215317 19 350 3.2 8.0 0.00 0.05 0.00 35 1006.1
20260507214337 20 30 4.8 12.9 0.00 0.05 0.00 34 1006.1
20260507213333 20 319 4.8 9.7 0.00 0.05 0.00 35 1006.0
20260507212316 19 306 4.8 19.3 0.00 0.05 0.00 34 1006.1
20260507211339 20 317 6.4 14.5 0.00 0.05 0.00 40 1006.2
20260507210316 20 342 6.4 12.9 0.00 0.05 0.00 37 1006.1
20260507205315 20 252 3.2 9.7 0.00 0.05 0.00 39 1006.2
20260507204335 19 321 9.7 19.3 0.00 0.05 0.00 36 1006.3
20260507203359 20 360 6.4 14.5 0.00 0.05 0.00 40 1006.5
20260507202317 20 67 3.2 19.3 0.00 0.05 0.00 42 1006.5
20260507201338 19 360 3.2 22.5 0.00 0.05 0.00 41 1006.5
20260507200339 19 351 3.2 14.5 0.00 0.05 0.00 41 1006.6
20260507195339 20 34 4.8 14.5 0.00 0.05 0.00 41 1006.8
20260507194331 19 199 1.6 12.9 0.00 0.05 0.00 41 1006.9
20260507193335 20 360 9.7 16.1 0.00 0.05 0.00 43 1007.1
20260507192336 20 333 3.2 6.4 0.00 0.05 0.00 38 1007.3
20260507191318 18 159 4.8 16.1 0.00 0.05 0.00 39 1007.4
20260507190322 19 338 6.4 14.5 0.00 0.05 0.00 41 1007.5
20260507185315 18 300 8.0 17.7 0.00 0.05 0.00 40 1007.7
20260507184318 18 325 9.7 17.7 0.00 0.05 0.00 41 1007.7
20260507183318 17 215 4.8 14.5 0.00 0.05 0.00 44 1007.9
20260507182317 17 284 4.8 12.9 0.00 0.05 0.00 46 1008.0
20260507181318 17 349 6.4 24.1 0.00 0.05 0.00 41 1008.1
20260507180319 17 320 8.0 22.5 0.00 0.05 0.00 40 1008.3
20260507175331 17 348 8.0 19.3 0.00 0.05 0.00 42 1008.4
20260507174338 17 304 6.4 17.7 0.00 0.05 0.00 43 1008.6
20260507173335 17 44 8.0 22.5 0.00 0.05 0.00 40 1008.8
20260507172337 17 315 6.4 22.5 0.00 0.05 0.00 44 1008.9
20260507171338 17 16 9.7 17.7 0.00 0.05 0.00 44 1009.0
20260507170338 17 331 4.8 14.5 0.00 0.05 0.00 47 1009.2
20260507165353 17 5 8.0 19.3 0.00 0.05 0.00 42 1009.4
20260507164337 16 351 9.7 20.9 0.00 0.05 0.00 44 1009.5
20260507163317 16 330 4.8 14.5 0.00 0.05 0.00 45 1009.6
20260507162322 16 13 3.2 16.1 0.00 0.05 0.00 48 1009.7
20260507161336 16 309 12.9 19.3 0.00 0.05 0.00 46 1009.9
20260507160331 16 340 8.0 17.7 0.00 0.05 0.00 45 1010.0
20260507155330 16 345 11.3 22.5 0.00 0.05 0.00 44 1010.1
20260507154313 15 35 6.4 16.1 0.00 0.05 0.00 45 1010.2
20260507153335 15 317 6.4 19.3 0.00 0.05 0.00 42 1010.2
20260507152315 15 5 3.2 16.1 0.00 0.05 0.00 42 1010.3
20260507151336 15 265 6.4 14.5 0.00 0.05 0.00 42 1010.5
20260507150334 15 9 6.4 19.3 0.00 0.05 0.00 42 1010.7
20260507145328 15 330 9.7 20.9 0.00 0.13 0.00 44 1010.9
20260507144331 13 342 8.0 17.7 0.00 0.13 0.00 47 1011.0
20260507143325 13 42 8.0 19.3 0.00 0.13 0.00 47 1011.0
20260507142314 13 328 8.0 17.7 0.00 0.13 0.00 48 1011.1
20260507141337 14 350 12.9 20.9 0.00 0.13 0.00 44 1011.1
20260507140351 13 21 9.7 17.7 0.00 0.13 0.00 48 1011.3
20260507135313 13 338 8.0 16.1 0.00 0.25 0.00 51 1011.5